FW2617 Weather Reports


time (UTC)temp
C
wind
direction
speed
KPH
gust
KPH
rain 1hr
cm
rain 24hr
cm
rain mn
cm
humidity
%
barometer
mb
20260504050003 16 164 6.4 17.7 0.00 0.00 0.00 71 1013.6
20260504045403 16 164 4.8 14.5 0.00 0.00 0.00 71 1013.7
20260504044503 17 165 4.8 11.3 0.00 0.00 0.00 71 1013.7
20260504043603 17 165 4.8 9.7 0.00 0.00 0.00 70 1013.8
20260504042703 17 166 3.2 11.3 0.00 0.00 0.00 69 1013.9
20260504041803 17 166 4.8 11.3 0.00 0.00 0.00 69 1013.8
20260504040903 17 163 4.8 12.9 0.00 0.00 0.00 69 1014.0
20260504040003 17 164 4.8 11.3 0.00 0.00 0.00 68 1014.1
20260504035424 17 167 3.2 9.7 0.00 0.00 0.00 67 1014.1
20260504034503 17 166 4.8 9.7 0.00 0.00 0.00 66 1014.0
20260504033603 18 167 4.8 9.7 0.00 0.00 0.00 66 1014.0
20260504032703 18 166 3.2 9.7 0.00 0.00 0.00 65 1013.9
20260504031803 18 166 4.8 11.3 0.00 0.00 0.00 65 1013.8
20260504030903 18 169 4.8 11.3 0.00 0.00 0.00 64 1013.7
20260504030002 18 165 4.8 9.7 0.00 0.00 0.00 64 1013.6
20260504025403 18 162 3.2 9.7 0.00 0.00 0.00 64 1013.5
20260504024503 18 167 4.8 11.3 0.00 0.00 0.00 63 1013.7
20260504023603 19 163 4.8 9.7 0.00 0.00 0.00 62 1013.7
20260504022703 19 162 4.8 8.0 0.00 0.00 0.00 61 1013.7
20260504021803 20 162 4.8 12.9 0.00 0.00 0.00 59 1013.6
20260504020903 20 159 4.8 11.3 0.00 0.00 0.00 58 1013.6
20260504020003 20 164 4.8 14.5 0.00 0.00 0.00 57 1013.5
20260504015403 20 164 6.4 14.5 0.00 0.00 0.00 55 1013.6
20260504014503 21 163 4.8 12.9 0.00 0.00 0.00 54 1013.5
20260504013603 21 166 6.4 16.1 0.00 0.00 0.00 53 1013.3
20260504012724 21 164 6.4 16.1 0.00 0.00 0.00 52 1013.1
20260504011803 21 164 6.4 16.1 0.00 0.00 0.00 50 1013.2
20260504010903 22 166 8.0 14.5 0.00 0.00 0.00 49 1013.3
20260504010024 22 166 8.0 19.3 0.00 0.00 0.00 47 1013.2
20260504005403 22 167 8.0 19.3 0.00 0.00 0.00 47 1013.3
20260504004503 23 164 9.7 20.9 0.00 0.00 0.00 45 1013.2
20260504003603 23 165 9.7 24.1 0.00 0.00 0.00 44 1013.3
20260504002703 23 163 9.7 24.1 0.00 0.00 0.00 43 1013.2
20260504001824 24 166 9.7 22.5 0.00 0.00 0.00 42 1013.4
20260504000904 24 164 11.3 25.7 0.00 0.00 0.00 41 1013.5
20260504000003 25 165 9.7 20.9 0.00 0.00 0.00 40 1013.5
20260503235403 25 159 12.9 25.7 0.00 0.00 0.00 39 1013.5
20260503234503 25 165 9.7 25.7 0.00 0.00 0.00 40 1013.5
20260503233602 26 168 9.7 24.1 0.00 0.00 0.00 38 1013.5
20260503232703 26 171 8.0 20.9 0.00 0.00 0.00 38 1013.6
20260503231803 26 169 9.7 22.5 0.00 0.00 0.00 38 1013.7
20260503230903 26 165 9.7 24.1 0.00 0.00 0.00 37 1013.8
20260503230024 26 165 11.3 27.4 0.00 0.00 0.00 36 1013.8
20260503225403 26 167 9.7 24.1 0.00 0.00 0.00 36 1014.0
20260503224503 26 164 12.9 27.4 0.00 0.00 0.00 37 1014.0
20260503223624 26 164 11.3 24.1 0.00 0.00 0.00 37 1013.9
20260503222703 27 170 11.3 22.5 0.00 0.00 0.00 36 1014.0
20260503221803 27 168 11.3 20.9 0.00 0.00 0.00 35 1014.0
20260503220903 27 167 11.3 22.5 0.00 0.00 0.00 35 1014.2
20260503220024 27 170 9.7 19.3 0.00 0.00 0.00 37 1014.2
20260503215403 27 173 9.7 20.9 0.00 0.00 0.00 35 1014.3
20260503214503 27 181 11.3 29.0 0.00 0.00 0.00 35 1014.4
20260503213603 27 171 9.7 27.4 0.00 0.00 0.00 36 1014.6
20260503212703 27 189 9.7 22.5 0.00 0.00 0.00 37 1014.8
20260503211803 27 176 11.3 22.5 0.00 0.00 0.00 34 1014.9
20260503210902 27 207 8.0 17.7 0.00 0.00 0.00 35 1014.9
20260503210003 27 188 9.7 25.7 0.00 0.00 0.00 35 1015.2
20260503205403 27 183 9.7 22.5 0.00 0.00 0.00 36 1015.3
20260503204524 27 173 11.3 22.5 0.00 0.00 0.00 35 1015.5
20260503203602 27 185 6.4 17.7 0.00 0.00 0.00 38 1015.6
20260503202703 27 185 8.0 17.7 0.00 0.00 0.00 36 1015.9
20260503201824 27 183 9.7 25.7 0.00 0.00 0.00 36 1016.0
20260503200903 28 195 6.4 14.5 0.00 0.00 0.00 37 1016.1
20260503200002 27 183 8.0 19.3 0.00 0.00 0.00 38 1016.2
20260503195403 27 180 8.0 19.3 0.00 0.00 0.00 39 1016.3
20260503194504 27 189 8.0 20.9 0.00 0.00 0.00 37 1016.5
20260503193603 27 179 9.7 22.5 0.00 0.00 0.00 38 1016.6
20260503192703 27 180 8.0 19.3 0.00 0.00 0.00 37 1016.7
20260503191803 27 190 9.7 22.5 0.00 0.00 0.00 41 1017.1
20260503190924 26 180 9.7 20.9 0.00 0.00 0.00 42 1017.1
20260503190003 27 181 9.7 24.1 0.00 0.00 0.00 43 1017.3
20260503185402 26 171 11.3 24.1 0.00 0.00 0.00 42 1017.4
20260503184503 26 187 9.7 20.9 0.00 0.00 0.00 42 1017.5
20260503183603 26 181 8.0 19.3 0.00 0.00 0.00 42 1017.6
20260503182703 26 187 9.7 17.7 0.00 0.00 0.00 41 1017.7
20260503181803 26 232 6.4 20.9 0.00 0.00 0.00 41 1017.8
20260503180902 26 193 8.0 17.7 0.00 0.00 0.00 42 1018.1
20260503180003 26 194 8.0 17.7 0.00 0.00 0.00 44 1018.2
20260503175403 26 196 8.0 19.3 0.00 0.00 0.00 44 1018.3
20260503174503 26 199 8.0 19.3 0.00 0.00 0.00 44 1018.4
20260503173603 25 190 9.7 19.3 0.00 0.00 0.00 45 1018.6
20260503172702 25 215 6.4 14.5 0.00 0.00 0.00 47 1018.7
20260503171803 25 206 8.0 19.3 0.00 0.00 0.00 47 1018.9
20260503170924 25 201 8.0 16.1 0.00 0.00 0.00 49 1019.1
20260503150925 20 206 9.7 17.7 0.00 0.00 0.00 63 1019.7
20260503130904 13 211 3.2 9.7 0.00 0.00 0.00 82 1019.3
20260503080904 14 193 1.6 4.8 0.00 0.00 0.00 75 1017.9
20260503072704 14 217 1.6 4.8 0.00 0.00 0.00 72 1018.2